Sidney, NE

2:54 PM MST on December 07, 2019 (GMT -0700)
Sidney Municipal

Weather History for KSNY - November, 2019

Change the Weather History Date:

Sunday, November 17, 2019

  Actual Average Record
Temperature  
Mean Temperature 40 °F -  
Max Temperature 55 °F 48 °F 73 °F (1975)
Min Temperature 24 °F 21 °F 2 °F (1996)
Degree Days  
Heating Degree Days 26    
Moisture  
Dew Point 24 °F    
Average Humidity 56    
Maximum Humidity 89    
Minimum Humidity 27    
Precipitation  
Precipitation 0.00 in - - ()
Sea Level Pressure  
Sea Level Pressure 30.06 in    
Wind  
Wind Speed 9 mph ()    
Max Wind Speed 18 mph    
Max Gust Speed 28 mph    
Visibility 8.9 miles    
Events      
Averages and records for this station are not official NWS values.
T = Trace of Precipitation, MM = Missing Value Source: Averaged Metar Reports

Daily Weather History Graph

Daily Weather History Graph

Search for Another Location

Airport or City:

Astronomy

Nov. 17, 2019 Rise Set
Actual Time 6:41 AM MST 4:31 PM MST
Civil Twilight 6:12 AM MST 5:01 PM MST
Nautical Twilight 5:38 AM MST 5:34 PM MST
Astronomical Twilight 5:06 AM MST 6:07 PM MST
Moon 9:09 PM MST (11/17) 11:30 AM MST (11/17)
Length of Visible Light 10h 49m
Length of Day
9h 49m
Waning Gibbous, 73% of the Moon is Illuminated
Nov 17
Waning Gibbous
Nov 19
Last Quarter
Nov 26
New
Dec 3
First Quarter
Dec 11
Full

Hourly Weather History & Observations

Time (MST) Temp. Windchill Dew Point Humidity Pressure Visibility Wind Dir Wind Speed Gust Speed Precip Events Conditions
12:53 AM 28.9 °F 20.4 °F 26.1 °F 89% 30.20 in 10.0 mi WNW 9.2 mph - N/A   Clear
1:53 AM 28.0 °F 19.3 °F 25.0 °F 88% 30.20 in 9.0 mi WNW 9.2 mph - N/A   Clear
2:53 AM 26.1 °F 16.2 °F 21.9 °F 84% 30.19 in 10.0 mi WNW 10.4 mph - N/A   Clear
3:53 AM 27.0 °F 16.7 °F 23.0 °F 85% 30.19 in 10.0 mi WNW 11.5 mph - N/A   Clear
4:53 AM 24.1 °F 14.4 °F 19.9 °F 84% 30.19 in 10.0 mi WNW 9.2 mph - N/A   Clear
5:53 AM 24.1 °F 15.2 °F 19.9 °F 84% 30.20 in 10.0 mi WNW 8.1 mph - N/A   Clear
6:53 AM 26.1 °F 16.2 °F 21.0 °F 81% 30.20 in 9.0 mi West 10.4 mph - N/A   Clear
7:53 AM 28.9 °F 23.9 °F 23.0 °F 78% 30.20 in 10.0 mi West 4.6 mph - N/A   Clear
8:53 AM 39.0 °F 30.6 °F 26.1 °F 60% 30.16 in 10.0 mi West 15.0 mph - N/A   Clear
9:53 AM 45.0 °F 39.3 °F 26.1 °F 48% 30.14 in 10.0 mi WNW 11.5 mph - N/A   Clear
10:53 AM 50.0 °F - 25.0 °F 38% 30.10 in 7.0 mi WNW 18.4 mph 27.6 mph N/A   Clear
11:53 AM 52.0 °F - 23.0 °F 32% 30.06 in 7.0 mi WNW 10.4 mph 23.0 mph N/A   Clear
12:53 PM 54.0 °F - 23.0 °F 30% 30.01 in 9.0 mi NW 17.3 mph 23.0 mph N/A   Clear
1:53 PM 55.0 °F - 24.1 °F 30% 29.98 in 9.0 mi NW 16.1 mph - N/A   Clear
2:53 PM 55.9 °F - 21.9 °F 27% 29.98 in 7.0 mi NW 13.8 mph - N/A   Clear
3:53 PM 53.1 °F - 24.1 °F 32% 29.98 in 10.0 mi NW 8.1 mph - N/A   Mostly Cloudy
4:53 PM 50.0 °F - 25.0 °F 38% 29.99 in 6.0 mi WNW 8.1 mph - N/A   Haze
5:53 PM 48.0 °F - 26.1 °F 42% 29.99 in 10.0 mi West 10.4 mph - N/A   Scattered Clouds
6:53 PM 39.9 °F 35.1 °F 26.1 °F 58% 30.00 in 10.0 mi WSW 6.9 mph - N/A   Partly Cloudy
7:53 PM 48.0 °F - 28.0 °F 46% 29.95 in 10.0 mi West 6.9 mph - N/A   Overcast
8:53 PM 48.0 °F - 26.1 °F 42% 29.91 in 9.0 mi West 10.4 mph - N/A   Overcast
9:53 PM 43.0 °F 37.2 °F 27.0 °F 53% 29.88 in 9.0 mi West 10.4 mph - N/A   Scattered Clouds
10:53 PM 48.9 °F - 28.0 °F 44% 29.84 in 6.0 mi West 12.7 mph - N/A   Haze
11:53 PM 48.0 °F - 28.0 °F 46% 29.83 in 6.0 mi WNW 12.7 mph - N/A   Haze